SCP
0 0 0 0 -0 0 0 0 0 0 0 0 0 0 0 0 0 0 0 -0 -0 -0 -0 -0 -0 -0 -0 -0 -0 -0 -0 -0 -0 0 0 0 0 0 0 0 0 0 0 0
0 0 0 0 0 -0 0 0 -0 0 0 0 0 0 0 0 0 0 0 0 -0 -0 -0 -0 -0 -0 -0 -0 -0 -0 -0 0 0 0 0 0 0 0 0 0 0 0 0 0
0 0 -0 0 0 -0 0 0 0 0 0 -0 -0 -0 -0 -0 -0 -0 -0 -0 -0 -0 -0 -0 -0 -0 -0 0 0 0 0 0 0 0 0 0 0 0 0 0 0 0 0 0
0 0 0 0 0 0 0 -0 0 0 0 -0 -0 -0 -0 -0 -0 -0 -0 -0 -0 -0 -0 -0 0 0 0 0 0 0 0 0 0 0 0 0 0 0 0 0 0 0 0 0
0 0 0 0 0 0 0 0 0 0 0 0 0 0 -0 -0 -0 -0 -0 -0 -0 -0 0 0 0 0 0 0 0 0 0 0 0 0 0 0 0 0 0 0 0 0 0 0
0 0 0 0 0 0 0 0 0 0 0 0 0 0 0 -0 -0 -0 -0 -0 0 0 0 0 0 0 0 0 0 0 0 0 0 0 0 0 0 0 0 0 0 0 0 0
0 0 0 0 0 0 0 0 0 0 0 0 0 0 0 0 0 0 0 0 0 0 0 0 0 0 0 0 0 0 0 0 0 0 0 0 0 0 0 0 0 0 0 0
0 0 0 0 0 0 0 0 0 0 0 0 0 0 0 0 0 0 0 0 0 0 0 0 0 0 0 0 0 0 0 0 0 0 0 0 0 0 0 0 0 0 0 0
0 0 0 0 0 0 0 0 0 0 0 0 0 0 0 0 0 0 0 0 0 0 0 0 0 0 0 0 0 0 0 0 0 0 0 0 0 0 0 0 0 0 0 0
0 0 0 0 0 0 0 0 0 0 0 0 0 0 0 0 0 0 0 0 0 0 0 0 0 0 0 0 0 0 0 0 0 0 0 0 0 0 0 0 0 0 0 0
0 0 0 0 0 0 0 0 0 0 0 0 0 0 0 0 0 0 0 0 0 0 0 0 0 0 0 0 0 0 0 0 0 0 0 0 0 0 0 0 0 0 0 0
0 0 0 0 0 0 0 0 0 0 0 0 0 0 0 0 0 0 0 0 0 0 0 0 0 0 0 0 0 0 0 0 0 0 0 0 0 0 0 0 0 0 0 0
0 0 0 0 0 0 0 0 0 0 0 0 0 0 0 0 0 0 0 0 0 0 0 0 0 0 0 0 0 0 0 0 0 0 0 0 0 0 0 0 0 0 0 0
0 0 0 0 0 0 0 0 0 0 0 0 0 0 0 0 0 0 0 0 0 0 0 0 0 0 0 0 0 0 0 0 0 0 0 0 0 0 0 0 0 0 0 0
0 0 0 0 0 0 0 0 0 0 0 0 0 0 0 0 0 0 0 0 0 0 0 0 0 0 0 0 0 0 0 0 0 0 0 0 0 0 0 0 0 0 0 0
0 0 0 0 0 0 0 0 0 0 0 0 0 0 0 0 0 0 0 0 0 0 0 0 0 0 0 0 0 0 0 0 0 0 0 0 0 0 0 0 0 0 0 0
0 0 0 0 0 0 0 0 0 0 0 0 0 0 0 0 0 0 0 0 0 0 0 0 0 0 0 0 0 0 0 0 0 0 0 0 0 0 0 0 0 0 0 0
0 0 0 0 0 0 0 0 0 0 0 0 0 0 0 0 0 0 0 0 0 0 0 0 0 0 0 0 0 0 0 0 0 0 0 0 0 0 0 0 0 0 0 0
0 -0 0 -0 0 0 0 0 0 0 0 0 0 0 0 0 0 0 0 0 0 0 0 0 0 0 0 0 0 0 0 0 0 0 0 0 0 0 0 0 0 0 0 0
-0 -0 0 0 0 0 0 0 0 0 0 0 0 0 0 0 0 0 0 0 0 0 0 0 0 0 0 0 0 0 0 0 0 0 0 0 0 0 0 0 0 0 0 0
0 0 0 0 0 0 0 0 0 0 0 0 0 0 0 0 0 0 0 0 0 0 0 0 0 0 0 0 0 0 0 0 0 0 0 0 0 0 0 0 0 0 0 0
0 0 0 0 0 0 0 0 0 0 0 0 0 0 0 0 0 0 0 0 0 0 0 0 0 0 0 0 0 0 0 0 0 0 0 0 0 0 0 0 0 0 0 0
0 0 0 0 0 0 0 0 0 0 0 0 0 0 0 0 0 0 0 0 0 0 0 0 0 0 0 0 0 0 0 0 0 0 0 0 0 0 0 0 0 0 0 0
0 0 0 0 0 0 0 0 0 0 0 0 0 0 0 0 0 0 0 0 0 0 0 0 0 -0 0 0 0 0 0 0 0 0 0 0 0 0 0 0 0 0 0 0
0 0 0 0 0 0 0 0 0 0 0 0 0 0 0 0 0 0 0 0 0 0 0 0 -0 -0 0 0 0 0 0 0 0 0 0 0 0 0 0 0 0 0 0 0
0 0 0 0 0 0 0 0 0 0 0 0 0 0 0 0 0 0 0 0 0 0 0 0 0 0 0 0 0 0 0 0 0 0 0 0 0 0 0 0 0 0 0 0
0 0 0 0 0 0 0 0 0 0 0 0 0 0 -0 -0 0 0 0 0 0 0 0 0 0 0 0 0 0 0 0 0 0 0 0 0 0 0 0 0 0 0 0 0
Wind_Speed_500mb
21 30 27 30 29 23 22 18 10 5 8 4 5 8 12 10 10 17 23 28 29 34 37 49 53 54 52 49 44 39 37 37 37 31 28 25 21 17 15 10 7 4 4 8
12 9 9 17 23 23 22 20 23 20 17 6 13 13 13 15 16 18 19 22 27 32 38 42 44 42 40 37 35 30 29 30 28 23 20 17 14 10 7 6 8 10 13 16
6 7 26 17 8 20 13 13 9 9 6 19 15 17 20 20 21 23 23 24 27 29 32 36 36 33 32 29 25 21 19 19 16 12 9 6 8 10 12 12 14 15 17 19
9 18 6 7 5 1 14 14 20 6 12 19 15 16 20 24 28 28 29 29 29 31 34 32 29 26 25 23 19 15 15 12 8 4 7 10 11 12 12 13 15 17 19 24
6 7 19 2 4 8 8 10 21 21 14 19 15 14 18 26 29 31 32 30 30 30 29 28 27 26 21 18 15 12 9 3 3 7 9 9 10 11 13 15 18 22 27 30
4 7 6 4 2 4 3 13 8 22 22 25 25 15 11 37 34 33 35 35 36 33 30 27 27 23 17 15 13 9 4 2 5 5 5 6 7 10 14 18 22 27 28 30
14 10 14 13 9 5 7 5 5 21 21 29 18 3 16 34 36 36 41 44 40 36 33 30 28 24 18 16 13 7 5 5 6 7 6 7 10 15 20 23 24 26 27 28
11 10 12 26 14 10 5 5 6 16 19 30 24 20 19 29 38 45 47 49 46 43 39 35 32 27 21 20 14 10 8 6 6 6 7 10 14 17 18 20 21 19 19 20
18 9 2 35 3 21 14 6 7 12 17 24 26 31 26 26 35 50 54 53 50 46 43 40 37 31 25 20 15 10 7 6 6 5 7 9 11 14 15 17 16 16 18 20
6 13 29 23 30 31 28 28 19 19 17 25 33 32 35 32 35 50 56 58 55 51 47 45 41 35 28 20 14 10 9 8 6 4 5 8 10 12 14 14 15 18 19 21
21 24 15 32 37 36 35 41 41 36 37 40 36 38 35 37 40 50 58 59 58 55 50 44 41 36 27 19 13 11 11 9 7 5 4 7 9 11 14 15 20 21 20 20
18 14 16 23 16 21 22 24 33 38 39 35 39 42 39 39 41 50 60 62 61 56 51 44 42 36 28 19 14 14 13 11 8 5 3 3 6 11 15 18 20 24 26 26
54 42 39 49 42 37 38 34 32 34 38 42 44 44 43 43 45 51 58 63 64 59 51 46 43 37 28 19 16 16 15 12 9 5 2 5 7 7 9 14 18 24 25 23
60 50 48 57 37 18 29 25 26 28 29 35 41 45 44 46 48 55 61 62 62 59 52 48 43 36 27 20 19 18 16 12 10 6 3 6 8 13 15 17 19 20 26 21
54 50 70 52 39 48 45 41 39 39 38 33 32 37 41 48 52 56 58 62 62 58 54 50 45 37 27 22 22 19 16 13 10 6 3 6 10 14 17 18 21 23 23 20
61 60 78 64 86 63 48 48 52 44 43 46 48 43 38 40 46 52 60 65 69 71 61 53 45 36 27 24 24 20 17 13 9 6 3 7 10 14 16 19 21 26 25 25
60 66 65 66 69 70 62 60 57 60 46 51 56 51 54 50 49 54 59 65 67 62 57 52 46 37 29 28 25 21 17 14 9 5 4 8 11 14 16 17 19 22 23 23
83 82 67 61 63 56 55 56 61 56 58 52 48 55 53 59 63 60 63 68 69 64 58 53 45 37 31 30 26 22 19 14 9 5 5 9 12 15 17 17 16 20 23 23
74 78 73 71 64 56 49 45 51 51 45 48 48 55 53 54 62 64 69 74 74 72 67 58 47 38 34 32 28 24 20 14 9 5 6 10 14 16 12 13 13 19 21 24
52 57 58 58 52 54 49 46 42 43 40 45 44 51 53 50 56 62 68 72 73 72 65 60 51 41 38 34 30 25 20 15 9 5 7 10 14 13 10 13 15 17 20 23
37 36 39 42 42 39 40 38 39 43 39 42 49 61 64 55 48 54 66 71 70 68 62 56 50 44 42 36 32 26 21 14 8 5 8 11 15 13 12 13 14 15 19 23
30 28 27 31 33 32 32 35 38 38 36 36 43 54 64 63 59 57 61 70 71 68 65 58 50 44 41 37 32 27 21 14 8 5 9 12 16 14 11 12 15 17 18 23
29 27 27 26 27 29 33 36 38 36 33 29 29 36 46 59 66 70 68 64 67 70 64 56 47 46 42 37 32 26 20 12 7 6 9 12 14 15 12 12 14 17 18 24
27 29 27 24 25 32 41 45 42 35 30 28 29 32 41 55 62 60 56 65 72 67 61 52 49 46 42 37 31 25 18 12 7 6 8 12 15 17 13 12 14 17 19 23
35 34 29 24 26 34 46 48 41 34 32 31 32 33 38 46 54 64 53 63 66 62 56 50 48 45 41 36 30 24 18 11 7 6 8 12 15 18 16 14 15 17 19 23
38 35 31 29 28 38 46 47 44 40 39 38 40 42 45 45 45 53 58 67 64 59 54 54 51 45 41 35 29 23 16 11 7 4 8 12 16 17 17 16 15 17 19 23
40 37 37 37 37 40 47 50 46 44 43 40 41 43 43 46 47 58 65 69 64 58 53 53 48 44 40 35 28 22 16 11 6 4 8 13 17 18 18 16 14 15 19 23
Wind_Direction_500mb
269 278 279 270 270 271 239 260 270 61 277 338 120 135 111 102 90 97 94 94 93 98 103 107 109 109 108 107 108 111 110 108 103 101 101 98 101 105 102 115 131 154 229 259
285 260 241 265 258 259 248 255 256 268 269 169 136 145 149 136 131 119 112 112 113 112 111 111 113 111 110 110 111 111 107 101 99 97 96 89 78 65 40 0 346 324 315 311
281 281 300 261 272 209 199 217 229 233 110 165 171 176 172 162 156 147 141 134 127 124 122 121 121 121 120 117 114 110 104 101 100 91 67 36 360 339 330 327 325 322 318 314
292 307 260 69 110 132 261 264 220 211 173 185 187 175 175 177 171 165 159 152 147 143 140 136 133 132 130 128 126 123 119 114 101 50 352 340 340 344 339 333 330 327 322 313
271 283 299 175 180 193 211 289 217 215 178 177 167 173 202 190 182 178 170 163 158 156 154 149 147 144 141 135 132 127 119 98 358 337 332 331 329 326 323 324 322 314 312 312
198 259 249 55 109 162 169 266 166 189 178 172 166 203 179 187 184 177 174 175 172 168 166 165 162 159 154 152 145 142 147 293 310 304 301 302 308 312 306 304 306 310 309 304
223 254 274 237 150 167 212 44 126 182 184 178 192 257 150 175 183 186 186 184 182 179 178 177 175 170 167 166 167 190 235 268 279 280 278 279 296 304 304 306 311 306 303 303
196 223 258 164 132 227 89 124 161 192 203 204 209 194 173 182 191 191 191 190 188 185 183 181 181 179 184 187 198 217 235 249 254 257 282 304 307 308 311 314 310 312 308 305
206 220 23 184 182 204 177 171 187 211 236 232 221 218 210 206 203 199 195 193 192 190 189 187 185 185 191 198 207 219 227 231 232 258 294 304 310 317 323 319 317 314 313 314
220 221 225 228 232 240 238 235 243 238 275 257 240 231 227 221 207 198 195 194 192 192 191 190 189 187 192 199 207 209 212 204 210 235 289 316 328 332 327 326 324 322 318 313
246 254 265 254 238 248 251 252 259 258 256 243 241 236 230 222 209 200 197 195 194 192 193 194 193 192 192 198 204 205 200 201 206 239 291 326 331 331 331 330 332 328 318 317
234 225 232 274 233 247 232 247 255 258 249 248 240 236 233 223 212 204 199 197 194 193 193 195 193 195 194 199 204 202 197 203 212 227 277 328 328 330 339 340 336 337 332 328
242 253 257 265 265 256 254 255 258 259 258 247 243 236 233 227 215 207 201 199 197 196 195 194 194 195 198 203 204 197 199 205 210 219 264 315 322 325 330 336 339 347 339 331
236 247 255 250 251 284 246 248 247 248 255 251 240 236 230 225 217 208 205 201 197 196 196 194 193 195 200 205 200 197 202 203 204 216 241 312 320 332 338 342 344 343 342 339
239 231 239 254 255 256 252 250 243 243 247 248 236 230 226 220 215 211 204 200 199 197 196 194 193 197 202 205 198 198 202 202 205 222 257 309 326 338 338 338 343 339 343 340
242 240 247 251 257 256 248 245 244 243 237 242 236 232 232 230 219 211 204 202 199 198 197 196 195 198 204 203 198 198 199 202 208 225 283 316 329 338 336 335 338 339 348 345
241 241 240 241 245 249 243 242 242 252 243 242 242 242 234 227 217 210 206 204 204 204 200 198 196 197 203 200 199 199 198 200 205 226 275 312 327 333 327 328 333 342 345 346
243 248 248 248 250 249 248 243 248 246 254 247 244 232 226 219 217 211 204 200 198 198 199 198 197 199 202 198 198 197 197 199 205 216 281 312 326 330 325 330 344 338 344 350
244 244 246 244 244 244 243 244 247 252 246 236 230 223 224 221 212 207 199 195 195 195 195 195 195 199 200 196 195 194 194 194 205 223 286 314 329 329 329 338 332 335 343 351
250 246 244 243 241 241 240 238 240 237 233 221 216 207 198 198 203 201 200 199 199 198 193 192 194 197 195 193 191 191 192 192 203 234 296 316 327 326 320 320 337 341 343 349
247 241 236 233 233 233 231 231 225 220 219 217 213 209 211 207 205 201 192 192 195 196 194 194 195 195 192 191 188 188 190 192 204 249 301 317 327 321 309 322 334 339 346 347
238 235 225 218 218 217 214 210 205 206 207 206 208 210 211 209 204 198 201 199 192 188 189 191 193 194 191 187 186 187 189 192 207 263 300 321 326 313 317 327 332 341 345 346
229 219 206 209 214 212 202 196 191 189 191 196 200 201 203 203 198 189 189 196 192 186 187 190 192 187 186 186 185 186 189 196 214 271 304 327 331 320 322 325 330 337 343 344
198 191 187 189 191 187 184 178 178 181 187 192 191 189 188 185 185 185 195 187 185 185 186 188 187 186 185 185 185 186 191 200 222 274 314 336 341 334 325 319 325 334 342 340
177 176 177 177 175 174 176 177 179 182 180 180 180 181 185 190 191 188 187 182 180 182 182 186 185 184 184 186 186 188 194 201 229 277 330 345 342 337 327 321 327 334 337 344
179 182 182 182 180 176 180 185 187 182 180 176 175 178 182 188 192 188 179 177 176 182 184 181 184 185 186 186 188 190 196 205 227 289 339 343 338 336 329 321 326 336 343 348
189 192 192 189 186 187 192 194 192 189 184 182 180 177 176 174 178 179 176 175 178 181 184 186 185 185 186 188 189 194 199 208 230 305 341 338 336 334 326 319 323 333 338 349
Wind_Speed_850mb
21 30 27 30 29 23 22 18 10 5 8 4 5 8 12 10 10 17 23 28 29 34 37 49 53 54 52 49 44 39 37 37 37 31 28 25 21 17 15 10 7 4 4 8
12 9 9 17 23 23 22 20 23 20 17 6 13 13 13 15 16 18 19 22 27 32 38 42 44 42 40 37 35 30 29 30 28 23 20 17 14 10 7 6 8 10 13 16
6 7 26 17 8 20 13 13 9 9 6 19 15 17 20 20 21 23 23 24 27 29 32 36 36 33 32 29 25 21 19 19 16 12 9 6 8 10 12 12 14 15 17 19
9 18 6 7 5 1 14 14 20 6 12 19 15 16 20 24 28 28 29 29 29 31 34 32 29 26 25 23 19 15 15 12 8 4 7 10 11 12 12 13 15 17 19 24
6 7 19 2 4 8 8 10 21 21 14 19 15 14 18 26 29 31 32 30 30 30 29 28 27 26 21 18 15 12 9 3 3 7 9 9 10 11 13 15 18 22 27 30
4 7 6 4 2 4 3 13 8 22 22 25 25 15 11 37 34 33 35 35 36 33 30 27 27 23 17 15 13 9 4 2 5 5 5 6 7 10 14 18 22 27 28 30
14 10 14 13 9 5 7 5 5 21 21 29 18 3 16 34 36 36 41 44 40 36 33 30 28 24 18 16 13 7 5 5 6 7 6 7 10 15 20 23 24 26 27 28
11 10 12 26 14 10 5 5 6 16 19 30 24 20 19 29 38 45 47 49 46 43 39 35 32 27 21 20 14 10 8 6 6 6 7 10 14 17 18 20 21 19 19 20
18 9 2 35 3 21 14 6 7 12 17 24 26 31 26 26 35 50 54 53 50 46 43 40 37 31 25 20 15 10 7 6 6 5 7 9 11 14 15 17 16 16 18 20
6 13 29 23 30 31 28 28 19 19 17 25 33 32 35 32 35 50 56 58 55 51 47 45 41 35 28 20 14 10 9 8 6 4 5 8 10 12 14 14 15 18 19 21
21 24 15 32 37 36 35 41 41 36 37 40 36 38 35 37 40 50 58 59 58 55 50 44 41 36 27 19 13 11 11 9 7 5 4 7 9 11 14 15 20 21 20 20
18 14 16 23 16 21 22 24 33 38 39 35 39 42 39 39 41 50 60 62 61 56 51 44 42 36 28 19 14 14 13 11 8 5 3 3 6 11 15 18 20 24 26 26
54 42 39 49 42 37 38 34 32 34 38 42 44 44 43 43 45 51 58 63 64 59 51 46 43 37 28 19 16 16 15 12 9 5 2 5 7 7 9 14 18 24 25 23
60 50 48 57 37 18 29 25 26 28 29 35 41 45 44 46 48 55 61 62 62 59 52 48 43 36 27 20 19 18 16 12 10 6 3 6 8 13 15 17 19 20 26 21
54 50 70 52 39 48 45 41 39 39 38 33 32 37 41 48 52 56 58 62 62 58 54 50 45 37 27 22 22 19 16 13 10 6 3 6 10 14 17 18 21 23 23 20
61 60 78 64 86 63 48 48 52 44 43 46 48 43 38 40 46 52 60 65 69 71 61 53 45 36 27 24 24 20 17 13 9 6 3 7 10 14 16 19 21 26 25 25
60 66 65 66 69 70 62 60 57 60 46 51 56 51 54 50 49 54 59 65 67 62 57 52 46 37 29 28 25 21 17 14 9 5 4 8 11 14 16 17 19 22 23 23
83 82 67 61 63 56 55 56 61 56 58 52 48 55 53 59 63 60 63 68 69 64 58 53 45 37 31 30 26 22 19 14 9 5 5 9 12 15 17 17 16 20 23 23
74 78 73 71 64 56 49 45 51 51 45 48 48 55 53 54 62 64 69 74 74 72 67 58 47 38 34 32 28 24 20 14 9 5 6 10 14 16 12 13 13 19 21 24
52 57 58 58 52 54 49 46 42 43 40 45 44 51 53 50 56 62 68 72 73 72 65 60 51 41 38 34 30 25 20 15 9 5 7 10 14 13 10 13 15 17 20 23
37 36 39 42 42 39 40 38 39 43 39 42 49 61 64 55 48 54 66 71 70 68 62 56 50 44 42 36 32 26 21 14 8 5 8 11 15 13 12 13 14 15 19 23
30 28 27 31 33 32 32 35 38 38 36 36 43 54 64 63 59 57 61 70 71 68 65 58 50 44 41 37 32 27 21 14 8 5 9 12 16 14 11 12 15 17 18 23
29 27 27 26 27 29 33 36 38 36 33 29 29 36 46 59 66 70 68 64 67 70 64 56 47 46 42 37 32 26 20 12 7 6 9 12 14 15 12 12 14 17 18 24
27 29 27 24 25 32 41 45 42 35 30 28 29 32 41 55 62 60 56 65 72 67 61 52 49 46 42 37 31 25 18 12 7 6 8 12 15 17 13 12 14 17 19 23
35 34 29 24 26 34 46 48 41 34 32 31 32 33 38 46 54 64 53 63 66 62 56 50 48 45 41 36 30 24 18 11 7 6 8 12 15 18 16 14 15 17 19 23
38 35 31 29 28 38 46 47 44 40 39 38 40 42 45 45 45 53 58 67 64 59 54 54 51 45 41 35 29 23 16 11 7 4 8 12 16 17 17 16 15 17 19 23
40 37 37 37 37 40 47 50 46 44 43 40 41 43 43 46 47 58 65 69 64 58 53 53 48 44 40 35 28 22 16 11 6 4 8 13 17 18 18 16 14 15 19 23
Wind_Direction_850mb
269 278 279 270 270 271 239 260 270 61 277 338 120 135 111 102 90 97 94 94 93 98 103 107 109 109 108 107 108 111 110 108 103 101 101 98 101 105 102 115 131 154 229 259
285 260 241 265 258 259 248 255 256 268 269 169 136 145 149 136 131 119 112 112 113 112 111 111 113 111 110 110 111 111 107 101 99 97 96 89 78 65 40 0 346 324 315 311
281 281 300 261 272 209 199 217 229 233 110 165 171 176 172 162 156 147 141 134 127 124 122 121 121 121 120 117 114 110 104 101 100 91 67 36 360 339 330 327 325 322 318 314
292 307 260 69 110 132 261 264 220 211 173 185 187 175 175 177 171 165 159 152 147 143 140 136 133 132 130 128 126 123 119 114 101 50 352 340 340 344 339 333 330 327 322 313
271 283 299 175 180 193 211 289 217 215 178 177 167 173 202 190 182 178 170 163 158 156 154 149 147 144 141 135 132 127 119 98 358 337 332 331 329 326 323 324 322 314 312 312
198 259 249 55 109 162 169 266 166 189 178 172 166 203 179 187 184 177 174 175 172 168 166 165 162 159 154 152 145 142 147 293 310 304 301 302 308 312 306 304 306 310 309 304
223 254 274 237 150 167 212 44 126 182 184 178 192 257 150 175 183 186 186 184 182 179 178 177 175 170 167 166 167 190 235 268 279 280 278 279 296 304 304 306 311 306 303 303
196 223 258 164 132 227 89 124 161 192 203 204 209 194 173 182 191 191 191 190 188 185 183 181 181 179 184 187 198 217 235 249 254 257 282 304 307 308 311 314 310 312 308 305
206 220 23 184 182 204 177 171 187 211 236 232 221 218 210 206 203 199 195 193 192 190 189 187 185 185 191 198 207 219 227 231 232 258 294 304 310 317 323 319 317 314 313 314
220 221 225 228 232 240 238 235 243 238 275 257 240 231 227 221 207 198 195 194 192 192 191 190 189 187 192 199 207 209 212 204 210 235 289 316 328 332 327 326 324 322 318 313
246 254 265 254 238 248 251 252 259 258 256 243 241 236 230 222 209 200 197 195 194 192 193 194 193 192 192 198 204 205 200 201 206 239 291 326 331 331 331 330 332 328 318 317
234 225 232 274 233 247 232 247 255 258 249 248 240 236 233 223 212 204 199 197 194 193 193 195 193 195 194 199 204 202 197 203 212 227 277 328 328 330 339 340 336 337 332 328
242 253 257 265 265 256 254 255 258 259 258 247 243 236 233 227 215 207 201 199 197 196 195 194 194 195 198 203 204 197 199 205 210 219 264 315 322 325 330 336 339 347 339 331
236 247 255 250 251 284 246 248 247 248 255 251 240 236 230 225 217 208 205 201 197 196 196 194 193 195 200 205 200 197 202 203 204 216 241 312 320 332 338 342 344 343 342 339
239 231 239 254 255 256 252 250 243 243 247 248 236 230 226 220 215 211 204 200 199 197 196 194 193 197 202 205 198 198 202 202 205 222 257 309 326 338 338 338 343 339 343 340
242 240 247 251 257 256 248 245 244 243 237 242 236 232 232 230 219 211 204 202 199 198 197 196 195 198 204 203 198 198 199 202 208 225 283 316 329 338 336 335 338 339 348 345
241 241 240 241 245 249 243 242 242 252 243 242 242 242 234 227 217 210 206 204 204 204 200 198 196 197 203 200 199 199 198 200 205 226 275 312 327 333 327 328 333 342 345 346
243 248 248 248 250 249 248 243 248 246 254 247 244 232 226 219 217 211 204 200 198 198 199 198 197 199 202 198 198 197 197 199 205 216 281 312 326 330 325 330 344 338 344 350
244 244 246 244 244 244 243 244 247 252 246 236 230 223 224 221 212 207 199 195 195 195 195 195 195 199 200 196 195 194 194 194 205 223 286 314 329 329 329 338 332 335 343 351
250 246 244 243 241 241 240 238 240 237 233 221 216 207 198 198 203 201 200 199 199 198 193 192 194 197 195 193 191 191 192 192 203 234 296 316 327 326 320 320 337 341 343 349
247 241 236 233 233 233 231 231 225 220 219 217 213 209 211 207 205 201 192 192 195 196 194 194 195 195 192 191 188 188 190 192 204 249 301 317 327 321 309 322 334 339 346 347
238 235 225 218 218 217 214 210 205 206 207 206 208 210 211 209 204 198 201 199 192 188 189 191 193 194 191 187 186 187 189 192 207 263 300 321 326 313 317 327 332 341 345 346
229 219 206 209 214 212 202 196 191 189 191 196 200 201 203 203 198 189 189 196 192 186 187 190 192 187 186 186 185 186 189 196 214 271 304 327 331 320 322 325 330 337 343 344
198 191 187 189 191 187 184 178 178 181 187 192 191 189 188 185 185 185 195 187 185 185 186 188 187 186 185 185 185 186 191 200 222 274 314 336 341 334 325 319 325 334 342 340
177 176 177 177 175 174 176 177 179 182 180 180 180 181 185 190 191 188 187 182 180 182 182 186 185 184 184 186 186 188 194 201 229 277 330 345 342 337 327 321 327 334 337 344
179 182 182 182 180 176 180 185 187 182 180 176 175 178 182 188 192 188 179 177 176 182 184 181 184 185 186 186 188 190 196 205 227 289 339 343 338 336 329 321 326 336 343 348
189 192 192 189 186 187 192 194 192 189 184 182 180 177 176 174 178 179 176 175 178 181 184 186 185 185 186 188 189 194 199 208 230 305 341 338 336 334 326 319 323 333 338 349